Lapse_Rate
7.2 6.0 7.5 7.4 8.2 7.5 8.0 8.5 8.7 3.4 2.0 1.9 4.0 7.7 7.0 7.9 8.1 7.4 7.0 7.4 7.2 7.4 6.9 7.3 7.2 7.3 6.1 5.5 5.7 5.6 5.8 5.8 5.9 3.7 3.4 1.4 0.8 1.0 6.9 8.4 7.8 8.0 7.8
3.6 4.4 7.2 3.9 4.9 7.7 6.1 4.1 8.3 8.3 7.0 6.9 7.2 6.6 7.1 7.6 7.8 7.6 6.8 7.6 7.6 7.3 7.8 7.5 8.1 8.4 7.6 7.1 5.8 5.9 6.3 6.0 6.6 6.2 6.0 5.7 5.9 5.6 5.8 5.9 7.0 8.6 8.4
4.2 4.2 4.7 6.7 6.4 6.8 6.3 3.5 3.1 7.4 8.2 8.3 7.6 6.5 6.2 6.3 6.5 6.5 6.5 6.5 6.5 7.1 7.9 7.9 7.9 7.2 7.5 7.2 6.8 6.6 6.4 6.4 5.6 6.0 5.4 5.2 5.2 5.5 5.2 5.4 6.0 6.4 7.7
3.6 4.7 5.6 4.9 4.9 4.2 5.5 6.3 6.1 5.8 6.5 6.6 7.2 6.7 6.3 7.0 6.8 6.7 6.7 6.3 6.5 7.9 7.9 8.2 8.1 8.2 7.5 7.5 7.3 7.3 7.2 6.4 6.0 6.0 6.0 5.9 5.5 5.7 5.6 5.8 6.0 5.7 5.5
4.6 5.4 5.8 5.2 3.6 4.0 4.5 5.0 5.3 5.1 5.4 5.5 6.6 7.1 3.7 2.7 1.3 1.2 2.4 5.6 6.4 7.3 7.3 7.2 8.0 5.1 5.4 3.7 7.0 6.7 6.0 5.9 5.7 6.0 5.8 5.9 5.8 5.7 5.5 5.8 5.4 5.2 5.1
5.4 5.8 6.3 6.1 5.6 5.4 4.7 4.7 5.0 5.2 5.5 5.7 5.8 5.7 2.9 0.3 -1.4 -1.4 0.2 4.8 6.4 6.9 6.2 6.5 6.7 4.4 4.8 2.8 3.1 3.2 3.9 5.4 5.1 5.0 5.0 5.6 5.0 4.5 5.7 5.5 5.1 5.6 5.9
6.9 7.0 6.2 6.1 6.9 5.9 5.5 6.3 6.4 5.1 4.7 4.9 3.8 2.9 0.2 -1.0 -2.7 -2.3 -0.7 3.6 6.0 5.9 6.2 6.1 6.2 3.6 1.0 2.2 3.2 1.2 1.0 1.1 1.4 4.4 5.7 5.9 6.1 5.6 5.4 5.1 5.2 5.4 5.5
4.4 5.6 5.6 6.3 6.0 5.8 6.2 6.0 6.1 5.9 5.1 5.8 4.0 2.4 1.7 -0.6 -3.1 -2.6 -0.9 3.0 5.4 6.4 5.6 4.9 4.4 0.6 -1.7 -1.0 2.0 5.0 5.9 6.2 5.3 4.6 4.7 5.6 5.6 5.3 5.0 5.8 5.2 5.0 5.8
2.8 3.1 4.1 5.1 5.2 5.4 6.0 6.2 6.6 5.5 5.1 6.1 5.9 3.6 2.3 -0.9 -2.9 -2.7 0.1 4.7 6.7 5.6 3.0 0.6 2.8 0.4 -2.5 -2.8 2.5 3.6 4.3 5.5 3.3 3.6 4.0 4.6 5.2 5.0 2.9 3.9 4.7 5.2 6.4
0.2 1.1 2.8 3.8 4.6 5.0 5.1 4.9 5.9 7.0 6.9 6.2 6.0 4.6 1.7 0.4 -2.8 -2.6 -1.6 4.0 4.5 4.7 3.1 1.0 -1.5 -1.4 -2.8 -3.0 0.5 2.1 3.4 3.5 2.4 2.7 3.7 4.6 5.2 5.8 6.3 2.5 4.6 5.2 5.9
1.3 1.2 1.8 2.6 3.6 4.0 4.4 5.0 5.3 5.4 7.2 6.7 6.2 4.4 2.4 1.4 -0.5 -2.1 -1.9 1.8 1.9 3.9 4.2 3.5 2.7 -1.2 -2.6 -3.1 -3.3 0.5 2.5 -0.6 2.3 3.1 4.4 5.7 6.9 7.3 6.9 5.6 6.7 6.0 5.6
2.2 2.5 2.8 3.2 3.6 3.8 4.4 4.8 5.3 5.2 6.0 6.5 6.9 7.1 5.8 2.9 -0.0 -1.3 -1.0 -1.2 -0.8 1.8 3.7 3.8 2.8 -0.8 -2.2 -2.9 -1.8 0.6 -1.2 0.0 3.3 4.7 5.7 6.1 5.9 6.0 5.6 4.1 5.5 6.5 7.1
3.2 2.7 2.5 2.9 3.1 3.3 4.5 4.1 4.7 4.9 5.0 6.0 7.0 7.0 7.9 5.1 1.6 -0.6 -0.3 -0.4 0.6 1.5 2.5 0.4 -0.9 -1.9 -2.2 -1.1 -0.7 -0.2 0.2 3.7 5.1 4.7 4.7 5.1 5.3 5.4 5.8 5.7 7.0 7.2 7.0
2.8 2.7 2.9 2.7 2.5 3.3 3.3 2.0 3.7 6.6 7.1 7.1 7.4 7.2 8.0 7.4 4.8 2.1 0.8 -0.2 0.1 1.1 -1.2 0.6 1.6 1.0 0.5 2.7 3.3 6.0 6.5 6.8 6.7 6.2 6.1 6.1 6.2 6.5 6.6 6.6 6.4 5.7 5.9
5.0 4.8 4.9 4.9 4.4 4.5 0.7 0.2 2.1 -1.8 -1.5 1.4 2.3 5.1 4.5 4.1 0.8 -3.2 -3.1 -0.9 -0.8 -1.8 -4.1 1.0 4.9 5.7 5.8 5.4 5.6 5.6 6.1 5.4 4.1 4.5 5.1 5.8 6.1 6.1 6.2 6.4 6.3 6.7 6.7
5.7 5.8 6.2 7.5 6.7 7.7 5.7 2.9 -1.9 -2.8 -3.2 -3.0 -2.8 -0.8 0.2 -2.0 -2.7 -3.0 -3.8 -4.5 -4.9 -4.5 1.6 6.3 6.4 6.9 5.8 5.9 4.9 5.1 4.8 4.4 4.1 3.9 3.7 4.1 4.9 5.5 4.9 6.2 7.1 7.3 7.3
7.8 8.5 8.5 7.7 8.5 8.2 8.5 7.9 5.7 0.3 -1.3 -1.7 -1.6 -1.5 -1.5 -2.9 -1.9 -2.7 -3.2 -3.9 -3.2 -1.9 2.9 8.0 7.8 8.0 7.9 7.9 8.0 7.6 6.9 6.0 6.6 5.1 4.8 5.0 6.0 6.2 4.8 5.1 5.5 6.0 5.7
6.3 3.5 8.2 8.9 8.3 8.8 8.7 8.8 8.8 5.4 4.7 3.7 -0.4 0.9 -0.3 -0.5 -1.0 -1.9 -2.4 -1.9 4.4 2.5 6.4 7.9 8.1 8.2 8.2 8.0 7.8 7.8 7.1 8.0 6.7 6.8 7.4 8.0 7.8 7.6 8.0 7.8 7.8 7.4 6.9
6.6 8.7 7.9 8.5 9.0 8.2 8.7 9.0 9.1 8.8 8.5 6.3 4.3 0.5 0.5 -0.1 -0.2 -1.0 -1.2 2.9 8.1 8.3 8.5 8.5 8.5 8.6 8.4 8.4 7.9 7.8 7.6 8.2 8.2 8.2 8.5 8.3 8.5 8.3 7.7 8.1 8.0 7.7 7.9
7.1 6.4 7.4 8.8 9.0 8.5 9.0 9.1 9.0 8.7 8.8 8.7 7.8 7.3 5.6 5.0 6.0 6.3 7.9 8.7 8.9 8.7 8.8 8.8 8.7 8.7 8.7 8.4 8.1 7.9 8.6 8.5 8.4 8.6 8.4 8.1 7.8 7.3 7.6 7.4 7.4 7.3 7.7
9.4 8.8 6.9 8.3 9.2 8.9 9.1 9.0 8.9 8.9 8.9 8.9 8.4 4.4 0.6 6.4 6.9 8.7 9.1 8.6 9.1 9.1 8.9 8.8 9.0 9.2 9.0 8.8 8.2 8.2 8.1 8.6 8.4 7.6 7.3 6.9 6.5 6.5 6.8 7.2 7.6 7.9 7.6
9.3 9.2 8.1 7.6 8.7 8.6 9.0 9.1 9.0 9.0 9.0 9.0 6.3 4.1 1.7 6.3 7.5 9.1 9.0 9.2 9.3 9.2 9.5 9.0 9.5 9.5 9.0 8.2 7.6 7.6 8.2 8.3 7.9 6.4 5.7 5.6 5.6 5.7 6.0 6.1 6.3 6.2 6.5
9.5 9.4 8.8 8.1 8.9 8.3 8.4 9.0 9.1 9.1 9.1 9.1 9.0 6.8 6.6 7.8 8.5 9.2 9.3 9.6 9.4 9.6 9.5 9.6 9.6 9.6 9.3 8.5 9.4 9.3 9.3 7.5 5.8 5.8 5.1 4.6 4.5 4.5 4.6 4.8 5.3 5.7 6.5
8.2 8.3 8.8 8.9 8.9 9.3 9.2 9.0 9.1 7.6 9.1 9.2 9.2 9.2 9.2 9.3 9.3 9.3 9.3 9.6 9.5 9.7 9.6 9.6 9.6 9.2 9.5 9.3 9.5 9.3 5.7 4.4 5.2 5.1 4.3 3.6 3.6 3.7 4.2 5.0 5.8 6.2 6.4
6.7 7.8 6.9 8.8 8.2 8.6 9.1 9.2 9.3 9.2 9.2 9.1 9.2 9.3 9.4 9.4 9.4 9.5 9.5 9.6 9.6 9.6 9.7 9.7 9.7 9.7 9.7 9.5 9.4 8.1 4.8 5.1 4.2 4.5 3.7 3.9 4.1 4.4 4.9 5.0 5.6 6.2 6.4
5.6 6.3 4.6 4.1 6.0 7.8 8.5 8.0 9.0 9.0 9.1 9.1 9.2 9.3 9.3 9.3 9.4 9.5 9.5 9.5 9.7 9.7 9.6 9.5 9.7 9.7 9.6 9.6 6.6 6.1 5.8 5.5 4.8 4.0 3.2 3.6 4.7 5.0 5.5 5.6 5.9 5.8 5.7
Wind_Speed
2 6 4 5 5 6 4 3 2 10 6 7 12 7 6 5 4 5 4 2 3 6 6 5 3 6 4 4 4 4 3 2 3 3 8 9 8 15 14 8 13 19 13
5 4 4 7 13 5 3 7 7 3 8 5 4 5 5 5 6 5 5 5 5 6 5 4 3 4 4 5 4 5 5 4 2 4 3 4 5 6 5 6 11 12 15
5 4 2 2 6 1 5 6 11 5 4 4 4 6 7 6 7 6 5 6 6 6 5 5 5 5 3 4 5 5 4 4 4 2 4 3 5 5 5 5 4 7 11
4 3 5 3 3 4 3 2 3 4 5 6 5 6 7 8 7 5 5 6 7 6 5 4 4 4 3 4 5 4 3 4 5 5 4 5 1 4 1 2 4 4 6
6 6 6 5 1 2 2 4 5 7 4 3 4 5 9 7 7 8 5 5 7 6 5 5 5 5 4 3 2 3 3 3 4 5 6 6 5 7 6 5 5 6 6
9 7 7 5 5 4 5 4 4 5 4 2 3 5 10 6 11 12 9 6 4 2 5 5 6 7 9 9 8 7 5 4 5 3 3 5 7 4 6 6 6 7 6
9 7 5 5 3 3 4 1 3 5 4 2 6 8 8 7 14 11 10 6 5 5 5 4 5 6 10 9 10 7 9 9 9 6 7 6 8 6 5 6 6 6 8
7 7 7 5 5 5 4 4 3 3 3 1 6 6 8 8 14 13 11 5 5 4 7 7 7 8 9 8 7 8 6 5 4 5 7 8 7 5 4 6 7 8 8
8 7 5 4 5 4 3 3 1 2 3 3 6 5 8 7 15 16 11 6 4 7 7 9 9 7 9 13 7 8 9 7 16 16 17 18 20 20 18 4 8 5 7
7 6 6 6 6 6 5 5 5 3 2 5 7 7 10 7 13 15 13 5 6 5 6 5 12 7 7 10 7 7 6 6 9 12 11 14 17 16 23 9 8 6 4
5 6 5 6 5 4 3 3 3 4 2 5 6 6 7 6 6 12 16 6 5 4 3 4 4 7 7 7 4 4 5 6 9 8 8 8 8 6 5 11 3 3 4
5 5 4 4 3 3 4 3 3 3 4 4 3 1 7 6 5 7 8 6 6 4 4 2 3 8 9 6 4 8 9 6 5 6 6 8 7 7 8 7 9 9 10
6 5 4 4 3 2 2 1 1 2 2 3 3 3 4 6 4 5 5 12 7 3 4 7 12 11 10 6 9 8 7 3 3 3 3 3 4 6 11 8 15 18 15
5 4 4 3 1 2 2 4 4 3 2 2 2 3 2 4 4 4 4 4 10 7 10 7 8 10 11 6 5 4 2 4 5 7 7 7 7 7 7 7 8 8 8
5 5 5 4 4 4 6 4 4 5 5 5 5 5 6 6 3 4 3 4 5 6 9 4 1 4 6 6 6 8 8 9 9 8 8 8 8 8 7 7 8 7 6
6 5 4 4 4 6 6 5 10 10 9 8 7 7 6 8 3 3 7 7 8 7 3 3 3 3 4 3 4 4 5 7 6 7 7 8 8 8 10 9 9 9 10
4 2 4 3 5 5 5 7 6 2 5 5 4 7 8 4 1 4 8 10 12 3 3 1 3 4 4 4 4 5 5 5 4 4 4 4 6 6 8 8 9 9 10
5 1 3 3 5 3 4 5 3 7 7 5 4 2 2 3 6 7 7 8 5 4 4 5 4 4 4 4 4 5 5 4 5 5 6 6 7 7 7 7 7 9 9
5 5 5 5 3 1 2 4 4 4 3 8 6 2 6 8 8 10 6 5 2 4 4 4 4 5 5 4 4 4 4 5 5 5 6 6 7 8 8 9 9 11 12
7 4 3 5 3 3 4 4 5 4 3 4 6 7 6 5 5 5 3 2 2 4 4 4 4 4 4 4 4 4 5 6 6 6 7 7 8 8 8 10 10 10 10
7 6 7 6 5 5 6 5 5 4 4 4 4 6 8 2 7 3 1 4 2 3 3 4 2 2 3 4 4 5 6 6 6 7 7 8 8 8 8 8 9 9 11
8 7 7 7 6 6 7 6 5 5 5 4 8 5 7 3 5 3 3 2 4 3 4 2 2 2 5 4 4 4 5 5 6 7 7 7 8 8 8 9 10 10 11
10 9 9 7 7 7 6 6 6 6 6 5 5 8 6 5 7 3 3 2 3 2 3 1 2 3 7 5 6 6 5 6 8 11 8 8 8 8 9 10 11 11 12
8 8 8 9 8 8 8 7 7 7 7 7 6 5 5 4 5 4 3 1 3 2 1 1 1 2 1 3 5 7 11 9 9 9 12 10 9 9 9 10 11 14 13
8 9 5 8 8 8 8 9 8 8 8 6 5 6 7 6 5 4 4 5 4 4 4 4 3 3 1 2 5 7 8 10 6 10 9 13 11 13 11 10 12 12 15
6 8 1 4 6 3 8 6 8 8 7 7 8 7 5 4 4 3 3 3 2 3 2 2 5 4 3 5 9 5 4 6 8 15 14 12 8 8 8 11 16 12 15
Wind_Direction
155 115 211 200 203 200 197 246 191 142 173 213 241 249 203 218 219 227 245 265 249 251 253 258 260 285 298 319 338 323 305 47 13 166 218 202 222 236 262 240 270 279 287
102 57 140 113 282 210 95 24 318 189 186 207 256 269 296 256 238 231 255 267 227 235 250 263 262 297 338 282 285 303 330 315 332 326 333 325 275 276 271 234 246 277 300
128 91 345 250 220 176 97 79 295 294 255 256 212 243 246 249 244 251 245 271 275 249 243 238 242 239 276 301 316 314 324 330 337 292 265 259 269 277 289 297 281 273 292
134 163 247 291 10 49 61 230 270 307 297 249 244 222 246 236 232 251 261 223 258 265 269 257 270 269 252 235 269 286 337 350 308 312 295 271 310 309 11 346 343 334 356
159 190 201 190 274 282 256 252 255 267 266 291 301 287 71 56 25 350 341 285 254 272 314 314 281 21 328 332 291 287 340 321 313 323 325 323 337 350 357 333 353 340 335
175 190 209 176 204 243 268 266 279 276 296 338 333 28 65 57 352 349 339 317 312 331 291 323 330 27 344 286 285 277 273 265 276 267 274 293 313 334 331 340 332 326 323
188 177 165 195 152 121 85 355 38 356 322 348 91 92 73 41 4 353 342 303 299 300 295 306 302 56 26 358 357 286 280 273 249 275 277 283 301 301 314 316 312 308 292
92 109 96 102 108 89 77 73 39 6 26 57 86 83 82 45 4 349 336 271 286 297 25 21 46 49 19 358 337 335 315 300 314 249 230 264 273 316 300 284 281 279 281
72 70 74 106 109 79 48 353 107 291 322 4 109 110 89 49 12 3 352 354 59 75 52 23 67 58 7 2 356 358 348 356 13 360 333 317 306 294 266 286 278 283 298
53 46 49 48 50 67 42 31 10 350 64 87 71 80 74 59 19 14 7 13 39 38 92 93 67 42 22 27 2 345 335 5 346 335 327 315 301 286 280 232 265 276 301
96 73 51 58 72 74 56 28 40 15 68 123 108 105 90 97 38 35 16 40 12 360 25 16 7 9 352 4 6 305 315 323 320 304 297 292 297 336 29 37 356 265 274
106 107 91 57 58 46 49 22 34 24 22 44 80 203 144 127 100 63 39 24 352 357 335 22 331 334 320 320 308 292 288 311 304 333 346 351 350 349 345 330 316 310 300
117 102 92 82 86 83 123 240 277 253 257 216 208 226 110 122 112 96 33 351 322 325 333 331 306 300 291 319 279 256 289 271 308 335 333 314 324 329 338 340 338 336 335
143 128 139 144 89 353 343 327 353 332 265 219 265 291 155 149 103 56 39 1 353 353 9 314 301 292 297 270 314 288 282 22 7 20 7 352 348 355 347 352 354 345 333
154 159 180 174 186 128 77 20 80 56 53 348 8 15 9 55 45 11 2 358 348 338 328 282 326 26 35 21 24 21 26 28 23 5 358 355 355 355 347 347 339 332 335
175 188 202 193 193 185 150 133 61 97 81 74 18 28 80 98 128 314 318 316 294 309 263 284 62 56 70 30 41 16 27 25 11 10 5 0 349 352 355 350 350 350 342
260 299 147 241 220 173 189 166 156 117 97 104 86 64 57 49 30 322 309 319 294 282 245 342 62 49 37 29 34 37 27 12 0 11 343 354 343 2 357 347 349 349 346
222 318 258 211 226 238 190 222 216 167 178 167 217 195 182 263 280 282 304 327 292 188 271 58 51 53 44 37 34 22 18 354 6 358 353 359 357 348 347 346 347 341 336
219 236 194 262 232 309 274 239 248 252 127 142 144 197 205 240 274 291 272 253 352 60 49 59 42 40 47 29 26 19 357 5 5 357 2 1 356 356 349 348 341 338 337
218 260 246 232 179 201 239 242 233 234 199 179 176 167 160 192 218 229 208 17 16 52 52 56 47 43 47 38 31 19 5 12 8 5 2 1 2 354 349 343 341 335 331
221 195 221 233 218 197 226 217 239 209 212 213 119 97 122 171 286 120 104 126 30 49 69 52 35 44 64 49 28 11 14 8 13 8 1 359 355 347 343 336 330 327 326
234 211 189 227 230 195 223 220 224 222 231 210 131 148 137 201 264 166 129 166 125 118 82 81 3 24 67 44 25 17 4 2 13 10 1 348 341 336 332 328 324 319 317
227 223 182 210 237 223 203 222 220 207 222 210 175 160 174 201 226 152 152 190 125 151 108 89 18 19 58 28 10 7 10 38 20 358 350 340 332 324 320 311 308 308 309
227 259 219 186 216 235 218 213 232 218 214 206 206 208 202 192 183 175 140 218 151 191 139 55 10 348 358 2 4 28 71 46 12 358 340 320 308 303 298 294 289 288 289
238 241 284 221 194 213 234 221 219 232 206 230 223 202 198 196 193 191 181 175 173 182 218 218 233 274 265 5 304 72 51 13 4 326 315 307 294 294 287 285 287 287 287
217 252 160 8 357 238 223 231 227 225 213 197 207 225 202 197 190 199 179 166 189 226 201 314 271 256 282 295 103 85 5 342 326 321 320 302 289 287 288 288 291 293 294